Location: Unspecified
(0.0000°N, 0.0000°E)
Time: 13:57:01
(UTC+00:00)

JUGNU - Pass Details

Date: 13 December 2017
Orbit: 837 x 864 km, 20.0° (Epoch: 16 January)

Event Time Altitude Azimuth Distance (km) Brightness Sun altitude
Exits shadow 05:07:03 - 328° (NNW) 2,633 ? -10.8°
Reaches altitude 10° 05:08:48 10° 344° (NNW) 2,448 ? -10.4°
Maximum altitude 05:09:50 10° 354° (N) 2,417 ? -10.2°
Drops below altitude 10° 05:10:54 10° 5° (N) 2,451 ? -9.9°
Sets 05:16:11 0° 44° (NE) 3,395 ? -8.7°
